FW7194 Weather Reports


time (UTC)temp
C
wind
direction
speed
KPH
gust
KPH
rain 1hr
cm
rain 24hr
cm
rain mn
cm
humidity
%
barometer
mb
20260503215248 18 157 9.7 12.9 0.00 0.00 0.00 63 1015.9
20260503214746 18 208 4.8 12.9 0.00 0.00 0.00 63 1015.7
20260503214242 18 226 9.7 11.3 0.00 0.00 0.00 62 1015.8
20260503213741 18 191 8.0 11.3 0.00 0.00 0.00 63 1015.7
20260503213238 18 232 3.2 11.3 0.00 0.00 0.00 63 1015.8
20260503212734 18 243 8.0 11.3 0.00 0.00 0.00 62 1015.8
20260503212232 18 242 9.7 16.1 0.00 0.00 0.00 61 1015.7
20260503211730 18 193 11.3 14.5 0.00 0.00 0.00 62 1016.1
20260503211225 18 175 6.4 11.3 0.00 0.00 0.00 61 1015.7
20260503210721 18 171 16.1 17.7 0.00 0.00 0.00 61 1015.9
20260503210219 18 217 14.5 16.1 0.00 0.00 0.00 61 1016.2
20260503205714 18 200 6.4 14.5 0.00 0.00 0.00 62 1016.2
20260503205210 18 128 9.7 20.9 0.00 0.00 0.00 62 1016.1
20260503204707 18 201 9.7 22.5 0.00 0.00 0.00 60 1016.2
20260503204205 18 160 4.8 14.5 0.00 0.00 0.00 61 1016.3
20260503203701 18 187 8.0 11.3 0.00 0.00 0.00 61 1016.0
20260503203159 18 199 14.5 24.1 0.00 0.00 0.00 60 1016.0
20260503202650 18 199 8.0 16.1 0.00 0.00 0.00 61 1016.3
20260503202148 18 243 3.2 9.7 0.00 0.00 0.00 61 1016.3
20260503201646 18 214 1.6 9.7 0.00 0.00 0.00 62 1016.1
20260503201143 18 288 3.2 12.9 0.00 0.00 0.00 61 1016.3
20260503200639 18 195 14.5 24.1 0.00 0.00 0.00 61 1016.5
20260503200136 18 244 6.4 11.3 0.00 0.00 0.00 61 1016.5
20260503195633 18 223 11.3 17.7 0.00 0.00 0.00 61 1016.3
20260503195130 18 205 3.2 16.1 0.00 0.00 0.00 61 1016.6
20260503194627 19 208 9.7 16.1 0.00 0.00 0.00 60 1016.6
20260503194122 18 222 1.6 11.3 0.00 0.00 0.00 61 1016.7
20260503193620 18 186 9.7 14.5 0.00 0.00 0.00 61 1016.8
20260503193114 18 173 4.8 20.9 0.00 0.00 0.00 61 1017.0
20260503192604 18 219 6.4 12.9 0.00 0.00 0.00 61 1016.9
20260503192100 18 116 11.3 17.7 0.00 0.00 0.00 60 1017.0
20260503191557 18 284 4.8 16.1 0.00 0.00 0.00 61 1017.0
20260503191054 18 148 8.0 14.5 0.00 0.00 0.00 61 1017.1
20260503190551 18 196 3.2 11.3 0.00 0.00 0.00 62 1017.1
20260503190048 18 127 8.0 11.3 0.00 0.00 0.00 60 1017.3
20260503185545 18 83 4.8 8.0 0.00 0.00 0.00 59 1017.4
20260503185044 18 227 0.0 4.8 0.00 0.00 0.00 58 1017.4
20260503184540 18 213 4.8 8.0 0.00 0.00 0.00 60 1017.4
20260503184037 18 180 6.4 12.9 0.00 0.00 0.00 60 1017.5
20260503183534 18 172 4.8 14.5 0.00 0.00 0.00 60 1017.7
20260503183031 19 106 8.0 12.9 0.00 0.00 0.00 59 1017.6
20260503182530 19 112 4.8 20.9 0.00 0.00 0.00 60 1017.7
20260503182027 19 193 14.5 16.1 0.00 0.00 0.00 60 1017.7
20260503181524 19 190 4.8 11.3 0.00 0.00 0.00 61 1017.7
20260503181020 19 171 9.7 14.5 0.00 0.00 0.00 61 1017.7
20260503180518 18 155 8.0 11.3 0.00 0.00 0.00 61 1017.8
20260503180015 18 128 1.6 3.2 0.00 0.00 0.00 61 1017.5
20260503175512 19 120 4.8 9.7 0.00 0.00 0.00 60 1017.6
20260503175009 19 184 11.3 12.9 0.00 0.00 0.00 60 1017.9
20260503174507 19 104 9.7 14.5 0.00 0.00 0.00 59 1017.7
20260503174002 20 151 6.4 9.7 0.00 0.00 0.00 57 1017.7
20260503173457 20 138 1.6 3.2 0.00 0.00 0.00 58 1017.7
20260503172954 20 209 1.6 3.2 0.00 0.00 0.00 58 1018.0
20260503172452 20 74 3.2 4.8 0.00 0.00 0.00 56 1017.9
20260503171948 20 207 1.6 4.8 0.00 0.00 0.00 54 1017.7
20260503171445 20 118 3.2 4.8 0.00 0.00 0.00 55 1017.9
20260503170943 20 287 1.6 4.8 0.00 0.00 0.00 53 1018.1
20260503170438 20 231 3.2 8.0 0.00 0.00 0.00 54 1018.1
20260503150831 18 170 0.0 3.2 0.00 0.00 0.00 58 1018.6
20260503150327 18 119 0.0 8.0 0.00 0.00 0.00 63 1018.6
20260503140251 17 138 1.6 8.0 0.00 0.00 0.00 75 1018.3
20260503131221 14 83 1.6 4.8 0.00 0.00 0.00 99 1018.2
20260503130719 14 109 1.6 4.8 0.00 0.00 0.00 99 1018.1
20260503130216 13 106 1.6 4.8 0.00 0.00 0.00 99 1018.2
20260503120141 10 118 0.0 0.0 0.00 0.00 0.00 99 1017.5
20260503110609 8 220 0.0 0.0 0.00 0.00 0.00 99 1016.9
20260503110106 8 226 0.0 0.0 0.00 0.00 0.00 99 1016.9
20260503090456 9 248 0.0 0.0 0.00 0.00 0.00 99 1015.4
20260503081422 10 245 0.0 0.0 0.00 0.00 0.00 99 1015.1
20260503080919 10 247 0.0 1.6 0.00 0.00 0.00 99 1015.1
20260503080416 10 241 0.0 0.0 0.00 0.00 0.00 99 1015.4
20260503072852 10 203 0.0 1.6 0.00 0.00 0.00 99 1014.9
20260503072349 10 201 0.0 1.6 0.00 0.00 0.00 99 1014.7
20260503071846 10 203 0.0 0.0 0.00 0.00 0.00 99 1014.7
20260503071343 10 230 0.0 0.0 0.00 0.00 0.00 99 1014.7
20260503070839 10 242 0.0 0.0 0.00 0.00 0.00 99 1014.8
20260503070337 10 222 0.0 0.0 0.00 0.00 0.00 99 1014.5
20260503060308 11 254 0.0 1.6 0.00 0.00 0.00 99 1014.3
20260503054755 11 12 0.0 1.6 0.00 0.00 0.00 99 1014.3
20260503054252 11 13 0.0 0.0 0.00 0.00 0.00 99 1014.2
20260503053750 11 13 0.0 0.0 0.00 0.00 0.00 99 1014.4
20260503053248 11 14 0.0 1.6 0.00 0.00 0.00 99 1014.5
20260503052744 11 17 0.0 0.0 0.00 0.00 0.00 99 1014.3
20260503052241 11 22 0.0 1.6 0.00 0.00 0.00 99 1014.2
20260503051736 11 29 0.0 1.6 0.00 0.00 0.00 99 1014.4
20260503051234 11 30 0.0 1.6 0.00 0.00 0.00 99 1014.2
20260503050730 11 33 0.0 3.2 0.00 0.00 0.00 99 1014.2
20260503050227 11 254 0.0 0.0 0.00 0.00 0.00 99 1014.3
20260503045724 11 281 0.0 1.6 0.00 0.00 0.00 99 1014.2
20260503045222 11 266 1.6 3.2 0.00 0.00 0.00 99 1014.2
20260503044718 11 295 1.6 3.2 0.00 0.00 0.00 99 1014.0
20260503044215 11 342 1.6 3.2 0.00 0.00 0.00 99 1013.8
20260503043712 11 196 0.0 1.6 0.00 0.00 0.00 99 1013.7
20260503043210 11 73 0.0 1.6 0.00 0.00 0.00 99 1013.9
20260503042706 12 341 0.0 3.2 0.00 0.00 0.00 99 1013.8
20260503042203 12 285 1.6 4.8 0.00 0.00 0.00 99 1013.8
20260503041658 12 294 1.6 1.6 0.00 0.00 0.00 99 1013.8
20260503041156 12 235 0.0 1.6 0.00 0.00 0.00 99 1013.7
20260503040654 12 312 0.0 3.2 0.00 0.00 0.00 99 1013.7
20260503040151 12 290 1.6 1.6 0.00 0.00 0.00 99 1013.6
20260503035647 12 280 1.6 1.6 0.00 2.59 2.59 99 1013.7
20260503035145 12 272 0.0 3.2 0.00 2.59 2.59 99 1013.4
20260503034643 12 271 0.0 3.2 0.00 2.59 2.59 99 1013.4
20260503034139 12 287 0.0 1.6 0.00 2.59 2.59 99 1013.4
20260503033636 12 268 1.6 3.2 0.00 2.59 2.59 99 1013.2
20260503033134 12 244 0.0 1.6 0.00 2.59 2.59 99 1013.2
20260503032632 12 250 0.0 1.6 0.00 2.59 2.59 99 1013.0
20260503032131 12 230 0.0 0.0 0.00 2.59 2.59 99 1013.1
20260503031628 12 220 0.0 1.6 0.00 2.59 2.59 99 1012.9
20260503031126 12 258 1.6 4.8 0.00 2.59 2.59 99 1012.9
20260503030621 12 221 0.0 1.6 0.00 2.59 2.59 99 1012.8
20260503030118 12 224 0.0 0.0 0.00 2.59 2.59 99 1012.6
20260503025615 12 269 0.0 3.2 0.00 2.59 2.59 99 1012.8
20260503025113 12 229 0.0 3.2 0.00 2.59 2.59 99 1012.5
20260503024609 12 226 0.0 1.6 0.00 2.59 2.59 99 1012.7
20260503024106 12 257 0.0 3.2 0.00 2.59 2.59 99 1012.5
20260503023603 12 240 0.0 0.0 0.00 2.59 2.59 99 1012.4
20260503023100 12 250 0.0 1.6 0.00 2.59 2.59 99 1012.4
20260503022556 12 119 0.0 1.6 0.00 2.59 2.59 99 1012.4
20260503022051 12 40 1.6 1.6 0.00 2.59 2.59 99 1012.2
20260503021548 12 41 0.0 0.0 0.00 2.59 2.59 99 1012.1
20260503021044 12 41 0.0 0.0 0.00 2.59 2.59 99 1012.0
20260503020542 12 41 0.0 0.0 0.00 2.59 2.59 99 1011.8
20260503020039 12 41 0.0 1.6 0.00 2.59 2.59 99 1011.8
20260503015535 12 41 0.0 1.6 0.00 2.59 2.59 99 1011.8
20260503015033 12 108 0.0 1.6 0.00 2.59 2.59 99 1011.5
20260503014528 12 95 1.6 3.2 0.00 2.59 2.59 99 1011.6
20260503014027 12 262 0.0 1.6 0.00 2.59 2.59 99 1011.4
20260503013523 12 297 0.0 1.6 0.00 2.59 2.59 99 1011.5
20260503013021 12 230 0.0 0.0 0.00 2.59 2.59 99 1011.5
20260503012519 12 71 1.6 3.2 0.00 2.59 2.59 99 1011.7
20260503012015 12 240 0.0 1.6 0.00 2.59 2.59 99 1011.6
20260503011511 12 351 3.2 8.0 0.00 2.59 2.59 99 1011.3
20260503011009 12 304 0.0 1.6 0.00 2.59 2.59 99 1011.6
20260503010505 12 271 0.0 3.2 0.00 2.59 2.59 99 1011.6
20260503010003 12 209 0.0 1.6 0.00 2.59 2.59 99 1011.4
20260503005500 12 322 1.6 4.8 0.00 2.59 2.59 99 1011.4
20260503004957 12 242 1.6 1.6 0.00 2.59 2.59 99 1011.4
20260503004453 12 256 0.0 3.2 0.00 2.59 2.59 99 1011.2
20260503003951 12 304 1.6 3.2 0.00 2.59 2.59 99 1011.2
20260503003447 12 284 3.2 3.2 0.00 2.59 2.59 99 1010.9
20260503002944 12 21 3.2 8.0 0.00 2.59 2.59 99 1010.8
20260503002442 13 315 1.6 4.8 0.00 2.59 2.59 99 1010.8
20260503001937 13 41 1.6 4.8 0.00 2.59 2.59 99 1010.5
20260503001434 13 25 0.0 3.2 0.00 2.59 2.59 99 1010.7
20260503000932 13 45 1.6 1.6 0.00 2.59 2.59 99 1010.9
20260503000430 13 21 1.6 4.8 0.00 2.59 2.59 99 1010.9
20260502235926 13 247 0.0 1.6 0.00 2.59 2.59 99 1010.7
20260502235423 13 238 0.0 4.8 0.00 2.59 2.59 99 1010.5
20260502234920 13 323 1.6 3.2 0.00 2.59 2.59 99 1010.3
20260502234417 13 15 0.0 3.2 0.00 2.59 2.59 99 1010.3
20260502233914 13 42 4.8 4.8 0.00 2.59 2.59 99 1010.4
20260502233409 13 286 1.6 1.6 0.00 2.59 2.59 99 1010.5
20260502232907 13 259 1.6 3.2 0.00 2.59 2.59 99 1010.3
20260502232403 13 42 3.2 4.8 0.00 2.59 2.59 99 1010.0
20260502231900 13 14 1.6 3.2 0.00 2.59 2.59 99 1009.8
20260502231358 13 321 0.0 1.6 0.00 2.59 2.59 99 1009.5
20260502230855 13 301 1.6 3.2 0.00 2.59 2.59 99 1009.6
20260502230353 13 41 1.6 4.8 0.00 2.59 2.59 99 1009.8
20260502225850 13 54 0.0 8.0 0.00 2.59 2.59 99 1009.8
20260502225346 13 269 0.0 8.0 0.00 2.59 2.59 99 1009.8
20260502224844 13 260 0.0 1.6 0.00 2.59 2.59 99 1009.8
20260502224339 13 269 0.0 3.2 0.05 2.59 2.59 99 1009.8
20260502223837 13 76 4.8 8.0 0.05 2.59 2.59 99 1009.9
20260502223335 13 38 1.6 3.2 0.00 2.59 2.59 99 1010.1
20260502222832 13 284 1.6 3.2 0.00 2.59 2.59 99 1009.8
20260502222330 13 315 0.0 3.2 0.00 2.59 2.59 99 1009.8
20260502221825 13 331 1.6 3.2 0.00 2.59 2.59 99 1009.9
20260502221322 13 16 0.0 3.2 0.05 2.59 2.59 99 1009.7
20260502220819 13 275 1.6 3.2 0.05 2.59 2.59 99 1009.7
20260502220315 13 44 1.6 8.0 0.00 2.57 2.57 99 1009.5
20260502215811 13 23 1.6 8.0 0.00 2.57 2.57 99 1009.5